Year,Month,Day,Hour,Minute,Value (Times are PST for temperature in C)
2012,02,09,00,00,3.90
2012,02,09,00,01,3.90
2012,02,09,00,02,3.90
2012,02,09,00,03,3.90
2012,02,09,00,04,3.90
2012,02,09,00,05,3.90
2012,02,09,00,06,3.90
2012,02,09,00,07,3.90
2012,02,09,00,08,3.90
2012,02,09,00,09,3.90
2012,02,09,00,10,4.00
2012,02,09,00,11,4.00
2012,02,09,00,12,4.00
2012,02,09,00,13,4.00
2012,02,09,00,14,4.00
2012,02,09,00,15,4.00
2012,02,09,00,16,4.00
2012,02,09,00,17,4.00
2012,02,09,00,18,4.00
2012,02,09,00,19,4.00
2012,02,09,00,20,4.00
2012,02,09,00,21,4.00
2012,02,09,00,22,4.00
2012,02,09,00,23,4.00
2012,02,09,00,24,4.00
2012,02,09,00,25,3.90
2012,02,09,00,26,3.90
2012,02,09,00,27,3.90
2012,02,09,00,28,3.90
2012,02,09,00,29,3.90
2012,02,09,00,30,3.90
2012,02,09,00,31,3.90
2012,02,09,00,32,3.90
2012,02,09,00,33,3.90
2012,02,09,00,34,3.90
2012,02,09,00,35,3.90
2012,02,09,00,36,3.90
2012,02,09,00,37,3.90
2012,02,09,00,38,3.90
2012,02,09,00,39,3.90
2012,02,09,00,41,3.90
2012,02,09,00,42,3.90
2012,02,09,00,43,3.90
2012,02,09,00,44,3.90
2012,02,09,00,45,3.90
2012,02,09,00,46,3.80
2012,02,09,00,47,3.80
2012,02,09,00,48,3.80
2012,02,09,00,49,3.80
2012,02,09,00,50,3.80
2012,02,09,00,51,3.80
2012,02,09,00,52,3.80
2012,02,09,00,53,3.80
2012,02,09,00,54,3.80
2012,02,09,00,55,3.80
2012,02,09,00,56,3.90
2012,02,09,00,57,3.90
2012,02,09,00,59,3.90
2012,02,09,01,00,3.90
2012,02,09,01,01,3.90
2012,02,09,01,03,3.90
2012,02,09,01,04,3.90
2012,02,09,01,05,3.90
2012,02,09,01,06,3.90
2012,02,09,01,07,3.90
2012,02,09,01,08,3.90
2012,02,09,01,10,3.90
2012,02,09,01,11,3.90
2012,02,09,01,12,3.90
2012,02,09,01,13,3.90
2012,02,09,01,14,3.90
2012,02,09,01,15,3.90
2012,02,09,01,16,3.90
2012,02,09,01,17,3.90
2012,02,09,01,18,3.90
2012,02,09,01,19,3.90
2012,02,09,01,20,3.90
2012,02,09,01,21,3.90
2012,02,09,01,22,3.90
2012,02,09,01,23,3.90
2012,02,09,01,24,3.90
2012,02,09,01,26,3.90
2012,02,09,01,27,3.90
2012,02,09,01,28,3.90
2012,02,09,01,29,3.90
2012,02,09,01,31,3.80
2012,02,09,01,32,3.80
2012,02,09,01,33,3.80
2012,02,09,01,34,3.80
2012,02,09,01,35,3.80
2012,02,09,01,37,3.80
2012,02,09,01,38,3.80
2012,02,09,01,39,3.80
2012,02,09,01,40,3.80
2012,02,09,01,41,3.80
2012,02,09,01,42,3.80
2012,02,09,01,43,3.80
2012,02,09,01,44,3.80
2012,02,09,01,45,3.80
2012,02,09,01,46,3.80
2012,02,09,01,47,3.80
2012,02,09,01,48,3.70
2012,02,09,01,49,3.70
2012,02,09,01,50,3.70
2012,02,09,01,51,3.70
2012,02,09,01,52,3.70
2012,02,09,01,53,3.70
2012,02,09,01,54,3.70
2012,02,09,01,55,3.70
2012,02,09,01,56,3.70
2012,02,09,01,57,3.70
2012,02,09,01,58,3.70
2012,02,09,01,59,3.60
2012,02,09,02,00,3.60
2012,02,09,02,01,3.60
2012,02,09,02,02,3.60
2012,02,09,02,03,3.60
2012,02,09,02,04,3.60
2012,02,09,02,05,3.60
2012,02,09,02,06,3.60
2012,02,09,02,07,3.60
2012,02,09,02,08,3.60
2012,02,09,02,09,3.60
2012,02,09,02,10,3.60
2012,02,09,02,11,3.60
2012,02,09,02,12,3.60
2012,02,09,02,13,3.60
2012,02,09,02,15,3.60
2012,02,09,02,17,3.60
2012,02,09,02,18,3.70
2012,02,09,02,19,3.70
2012,02,09,02,20,3.60
2012,02,09,02,21,3.60
2012,02,09,02,22,3.70
2012,02,09,02,23,3.60
2012,02,09,02,24,3.70
2012,02,09,02,25,3.60
2012,02,09,02,26,3.60
2012,02,09,02,27,3.60
2012,02,09,02,28,3.60
2012,02,09,02,29,3.60
2012,02,09,02,30,3.60
2012,02,09,02,31,3.60
2012,02,09,02,32,3.60
2012,02,09,02,33,3.60
2012,02,09,02,34,3.60
2012,02,09,02,35,3.60
2012,02,09,02,36,3.60
2012,02,09,02,37,3.60
2012,02,09,02,38,3.60
2012,02,09,02,39,3.50
2012,02,09,02,40,3.60
2012,02,09,02,41,3.50
2012,02,09,02,42,3.50
2012,02,09,02,43,3.50
2012,02,09,02,44,3.50
2012,02,09,02,45,3.50
2012,02,09,02,46,3.50
2012,02,09,02,47,3.50
2012,02,09,02,48,3.50
2012,02,09,02,49,3.50
2012,02,09,02,50,3.50
2012,02,09,02,51,3.50
2012,02,09,02,52,3.50
2012,02,09,02,53,3.40
2012,02,09,02,54,3.50
2012,02,09,02,55,3.50
2012,02,09,02,56,3.50
2012,02,09,02,57,3.50
2012,02,09,02,58,3.40
2012,02,09,02,59,3.40
2012,02,09,03,00,3.50
2012,02,09,03,01,3.40
2012,02,09,03,02,3.40
2012,02,09,03,03,3.40
2012,02,09,03,04,3.40
2012,02,09,03,05,3.40
2012,02,09,03,06,3.40
2012,02,09,03,07,3.40
2012,02,09,03,08,3.40
2012,02,09,03,09,3.40
2012,02,09,03,10,3.40
2012,02,09,03,12,3.40
2012,02,09,03,13,3.40
2012,02,09,03,15,3.40
2012,02,09,03,16,3.40
2012,02,09,03,17,3.40
2012,02,09,03,18,3.40
2012,02,09,03,19,3.40
2012,02,09,03,21,3.40
2012,02,09,03,22,3.40
2012,02,09,03,23,3.40
2012,02,09,03,24,3.40
2012,02,09,03,26,3.30
2012,02,09,03,27,3.30
2012,02,09,03,28,3.30
2012,02,09,03,29,3.30
2012,02,09,03,30,3.30
2012,02,09,03,31,3.30
2012,02,09,03,32,3.30
2012,02,09,03,33,3.30
2012,02,09,03,34,3.30
2012,02,09,03,35,3.30
2012,02,09,03,36,3.30
2012,02,09,03,37,3.30
2012,02,09,03,38,3.30
2012,02,09,03,39,3.30
2012,02,09,03,40,3.30
2012,02,09,03,41,3.30
2012,02,09,03,42,3.30
2012,02,09,03,43,3.20
2012,02,09,03,44,3.20
2012,02,09,03,45,3.20
2012,02,09,03,46,3.20
2012,02,09,03,47,3.20
2012,02,09,03,48,3.20
2012,02,09,03,49,3.20
2012,02,09,03,50,3.20
2012,02,09,03,51,3.20
2012,02,09,03,52,3.20
2012,02,09,03,53,3.20
2012,02,09,03,54,3.20
2012,02,09,03,55,3.20
2012,02,09,03,56,3.30
2012,02,09,03,57,3.20
2012,02,09,03,58,3.30
2012,02,09,03,59,3.30
2012,02,09,04,00,3.30
2012,02,09,04,01,3.30
2012,02,09,04,02,3.30
2012,02,09,04,04,3.30
2012,02,09,04,05,3.30
2012,02,09,04,06,3.30
2012,02,09,04,07,3.30
2012,02,09,04,08,3.30
2012,02,09,04,09,3.40
2012,02,09,04,11,3.40
2012,02,09,04,12,3.40
2012,02,09,04,13,3.40
2012,02,09,04,14,3.40
2012,02,09,04,15,3.40
2012,02,09,04,16,3.40
2012,02,09,04,17,3.40
2012,02,09,04,18,3.40
2012,02,09,04,19,3.40
2012,02,09,04,20,3.40
2012,02,09,04,21,3.40
2012,02,09,04,22,3.40
2012,02,09,04,23,3.40
2012,02,09,04,24,3.40
2012,02,09,04,25,3.40
2012,02,09,04,26,3.50
2012,02,09,04,27,3.50
2012,02,09,04,28,3.50
2012,02,09,04,29,3.50
2012,02,09,04,30,3.50
2012,02,09,04,31,3.50
2012,02,09,04,32,3.50
2012,02,09,04,33,3.50
2012,02,09,04,34,3.60
2012,02,09,04,35,3.60
2012,02,09,04,36,3.60
2012,02,09,04,37,3.60
2012,02,09,04,38,3.60
2012,02,09,04,39,3.60
2012,02,09,04,40,3.60
2012,02,09,04,41,3.60
2012,02,09,04,42,3.60
2012,02,09,04,43,3.60
2012,02,09,04,45,3.60
2012,02,09,04,46,3.60
2012,02,09,04,47,3.60
2012,02,09,04,48,3.60
2012,02,09,04,49,3.60
2012,02,09,04,50,3.60
2012,02,09,04,51,3.60
2012,02,09,04,52,3.60
2012,02,09,04,53,3.60
2012,02,09,04,54,3.60
2012,02,09,04,55,3.60
2012,02,09,04,56,3.60
2012,02,09,04,57,3.60
2012,02,09,04,58,3.60
2012,02,09,04,59,3.60
2012,02,09,05,00,3.60
2012,02,09,05,01,3.60
2012,02,09,05,02,3.60
2012,02,09,05,03,3.60
2012,02,09,05,04,3.60
2012,02,09,05,05,3.60
2012,02,09,05,06,3.60
2012,02,09,05,08,3.60
2012,02,09,05,09,3.60
2012,02,09,05,10,3.60
2012,02,09,05,11,3.60
2012,02,09,05,12,3.60
2012,02,09,05,13,3.60
2012,02,09,05,14,3.60
2012,02,09,05,15,3.70
2012,02,09,05,16,3.60
2012,02,09,05,17,3.70
2012,02,09,05,18,3.70
2012,02,09,05,19,3.70
2012,02,09,05,20,3.60
2012,02,09,05,21,3.60
2012,02,09,05,22,3.60
2012,02,09,05,23,3.60
2012,02,09,05,24,3.60
2012,02,09,05,25,3.60
2012,02,09,05,26,3.60
2012,02,09,05,27,3.60
2012,02,09,05,28,3.60
2012,02,09,05,29,3.60
2012,02,09,05,30,3.60
2012,02,09,05,31,3.60
2012,02,09,05,32,3.60
2012,02,09,05,33,3.60
2012,02,09,05,34,3.50
2012,02,09,05,35,3.50
2012,02,09,05,36,3.50
2012,02,09,05,37,3.50
2012,02,09,05,38,3.50
2012,02,09,05,39,3.50
2012,02,09,05,40,3.50
2012,02,09,05,41,3.50
2012,02,09,05,42,3.50
2012,02,09,05,43,3.40
2012,02,09,05,44,3.40
2012,02,09,05,45,3.40
2012,02,09,05,46,3.40
2012,02,09,05,47,3.40
2012,02,09,05,48,3.40
2012,02,09,05,49,3.40
2012,02,09,05,50,3.40
2012,02,09,05,51,3.30
2012,02,09,05,52,3.30
2012,02,09,05,53,3.30
2012,02,09,05,54,3.30
2012,02,09,05,55,3.30
2012,02,09,05,56,3.30
2012,02,09,05,57,3.30
2012,02,09,05,58,3.30
2012,02,09,05,59,3.30
2012,02,09,06,00,3.30
2012,02,09,06,01,3.30
2012,02,09,06,02,3.30
2012,02,09,06,03,3.30
2012,02,09,06,04,3.30
2012,02,09,06,05,3.30
2012,02,09,06,06,3.30
2012,02,09,06,07,3.30
2012,02,09,06,09,3.30
2012,02,09,06,10,3.30
2012,02,09,06,11,3.30
2012,02,09,06,12,3.30
2012,02,09,06,13,3.30
2012,02,09,06,14,3.30
2012,02,09,06,15,3.30
2012,02,09,06,16,3.30
2012,02,09,06,17,3.40
2012,02,09,06,18,3.40
2012,02,09,06,19,3.40
2012,02,09,06,20,3.40
2012,02,09,06,21,3.40
2012,02,09,06,22,3.40
2012,02,09,06,23,3.40
2012,02,09,06,24,3.30
2012,02,09,06,25,3.30
2012,02,09,06,29,3.30
2012,02,09,06,30,3.40
2012,02,09,06,31,3.40
2012,02,09,06,32,3.30
2012,02,09,06,33,3.30
2012,02,09,06,34,3.30
2012,02,09,06,35,3.30
2012,02,09,06,36,3.30
2012,02,09,06,37,3.30
2012,02,09,06,38,3.30
2012,02,09,06,39,3.30
2012,02,09,06,40,3.30
2012,02,09,06,41,3.30
2012,02,09,06,42,3.30
2012,02,09,06,43,3.30
2012,02,09,06,44,3.30
2012,02,09,06,45,3.30
2012,02,09,06,46,3.30
2012,02,09,06,47,3.30
2012,02,09,06,48,3.30
2012,02,09,06,49,3.30
2012,02,09,06,50,3.30
2012,02,09,06,51,3.30
2012,02,09,06,52,3.30
2012,02,09,06,53,3.30
2012,02,09,06,54,3.30
2012,02,09,06,55,3.30
2012,02,09,06,56,3.30
2012,02,09,06,57,3.30
2012,02,09,06,58,3.30
2012,02,09,06,59,3.30
2012,02,09,07,00,3.30
2012,02,09,07,01,3.30
2012,02,09,07,02,3.30
2012,02,09,07,03,3.30
2012,02,09,07,04,3.30
2012,02,09,07,05,3.30
2012,02,09,07,06,3.30
2012,02,09,07,07,3.40
2012,02,09,07,08,3.30
2012,02,09,07,09,3.40
2012,02,09,07,10,3.40
2012,02,09,07,11,3.40
2012,02,09,07,12,3.40
2012,02,09,07,13,3.40
2012,02,09,07,14,3.40
2012,02,09,07,15,3.40
2012,02,09,07,17,3.40
2012,02,09,07,19,3.40
2012,02,09,07,20,3.40
2012,02,09,07,21,3.40
2012,02,09,07,22,3.40
2012,02,09,07,23,3.40
2012,02,09,07,25,3.40
2012,02,09,07,26,3.40
2012,02,09,07,27,3.40
2012,02,09,07,28,3.40
2012,02,09,07,29,3.40
2012,02,09,07,30,3.40
2012,02,09,07,31,3.40
2012,02,09,07,32,3.40
2012,02,09,07,33,3.40
2012,02,09,07,34,3.40
2012,02,09,07,35,3.40
2012,02,09,07,36,3.40
2012,02,09,07,37,3.40
2012,02,09,07,38,3.50
2012,02,09,07,39,3.50
2012,02,09,07,40,3.50
2012,02,09,07,41,3.50
2012,02,09,07,43,3.50
2012,02,09,07,44,3.50
2012,02,09,07,45,3.50
2012,02,09,07,46,3.50
2012,02,09,07,47,3.50
2012,02,09,07,48,3.50
2012,02,09,07,49,3.50
2012,02,09,07,51,3.50
2012,02,09,07,52,3.50
2012,02,09,07,53,3.50
2012,02,09,07,54,3.50
2012,02,09,07,55,3.50
2012,02,09,07,57,3.50
2012,02,09,07,58,3.50
2012,02,09,08,00,3.50
2012,02,09,08,01,3.60
2012,02,09,08,03,3.60
2012,02,09,08,04,3.60
2012,02,09,08,05,3.60
2012,02,09,08,06,3.60
2012,02,09,08,08,3.60
2012,02,09,08,10,3.60
2012,02,09,08,11,3.60
2012,02,09,08,13,3.60
2012,02,09,08,14,3.60
2012,02,09,08,16,3.60
2012,02,09,08,17,3.60
2012,02,09,08,19,3.60
2012,02,09,08,20,3.60
2012,02,09,08,21,3.60
2012,02,09,08,23,3.60
2012,02,09,08,24,3.60
2012,02,09,08,25,3.70
2012,02,09,08,26,3.60
2012,02,09,08,27,3.60
2012,02,09,08,28,3.70
2012,02,09,08,29,3.60
2012,02,09,08,30,3.60
2012,02,09,08,31,3.60
2012,02,09,08,32,3.60
2012,02,09,08,33,3.60
2012,02,09,08,34,3.60
2012,02,09,08,35,3.60
2012,02,09,08,36,3.70
2012,02,09,08,37,3.70
2012,02,09,08,38,3.70
2012,02,09,08,39,3.70
2012,02,09,08,40,3.70
2012,02,09,08,41,3.70
2012,02,09,08,42,3.70
2012,02,09,08,43,3.70
2012,02,09,08,44,3.70
2012,02,09,08,45,3.70
2012,02,09,08,46,3.70
2012,02,09,08,47,3.70
2012,02,09,08,48,3.70
2012,02,09,08,49,3.70
2012,02,09,08,50,3.70
2012,02,09,08,51,3.70
2012,02,09,08,52,3.70
2012,02,09,08,53,3.70
2012,02,09,08,54,3.70
2012,02,09,08,55,3.70
2012,02,09,08,56,3.70
2012,02,09,08,57,3.70
2012,02,09,08,58,3.60
2012,02,09,08,59,3.60
2012,02,09,09,00,3.60
2012,02,09,09,01,3.60
2012,02,09,09,02,3.60
2012,02,09,09,03,3.60
2012,02,09,09,04,3.50
2012,02,09,09,06,3.50
2012,02,09,09,07,3.50
2012,02,09,09,08,3.50
2012,02,09,09,09,3.50
2012,02,09,09,11,3.50
2012,02,09,09,12,3.50
2012,02,09,09,13,3.50
2012,02,09,09,14,3.50
2012,02,09,09,15,3.50
2012,02,09,09,16,3.50
2012,02,09,09,17,3.50
2012,02,09,09,18,3.50
2012,02,09,09,19,3.50
2012,02,09,09,20,3.50
2012,02,09,09,21,3.50
2012,02,09,09,22,3.50
2012,02,09,09,23,3.50
2012,02,09,09,24,3.50
2012,02,09,09,26,3.60
2012,02,09,09,27,3.60
2012,02,09,09,28,3.60
2012,02,09,09,29,3.60
2012,02,09,09,30,3.60
2012,02,09,09,31,3.60
2012,02,09,09,32,3.60
2012,02,09,09,33,3.60
2012,02,09,09,34,3.60
2012,02,09,09,35,3.60
2012,02,09,09,36,3.60
2012,02,09,09,37,3.60
2012,02,09,09,38,3.60
2012,02,09,09,39,3.60
2012,02,09,09,40,3.60
2012,02,09,09,41,3.60
2012,02,09,09,42,3.60
2012,02,09,09,43,3.60
2012,02,09,09,44,3.60
2012,02,09,09,45,3.60
2012,02,09,09,46,3.60
2012,02,09,09,47,3.60
2012,02,09,09,48,3.60
2012,02,09,09,49,3.70
2012,02,09,09,50,3.70
2012,02,09,09,51,3.70
2012,02,09,09,52,3.70
2012,02,09,09,53,3.70
2012,02,09,09,54,3.70
2012,02,09,09,55,3.70
2012,02,09,09,56,3.70
2012,02,09,09,57,3.70
2012,02,09,09,58,3.70
2012,02,09,09,59,3.70
2012,02,09,10,00,3.70
2012,02,09,10,01,3.70
2012,02,09,10,02,3.70
2012,02,09,10,03,3.70
2012,02,09,10,04,3.70
2012,02,09,10,05,3.70
2012,02,09,10,06,3.70
2012,02,09,10,07,3.70
2012,02,09,10,08,3.80
2012,02,09,10,09,3.70
2012,02,09,10,10,3.80
2012,02,09,10,11,3.80
2012,02,09,10,12,3.80
2012,02,09,10,13,3.80
2012,02,09,10,14,3.80
2012,02,09,10,16,3.80
2012,02,09,10,17,3.80
2012,02,09,10,18,3.80
2012,02,09,10,19,3.80
2012,02,09,10,20,3.80
2012,02,09,10,21,3.80
2012,02,09,10,22,3.80
2012,02,09,10,23,3.80
2012,02,09,10,24,3.80
2012,02,09,10,25,3.80
2012,02,09,10,26,3.80
2012,02,09,10,27,3.90
2012,02,09,10,28,3.90
2012,02,09,10,30,3.90
2012,02,09,10,31,3.90
2012,02,09,10,32,3.90
2012,02,09,10,33,3.90
2012,02,09,10,34,3.90
2012,02,09,10,35,3.90
2012,02,09,10,36,3.90
2012,02,09,10,37,3.90
2012,02,09,10,38,3.90
2012,02,09,10,39,3.90
2012,02,09,10,40,3.90
2012,02,09,10,41,3.90
2012,02,09,10,42,3.90
2012,02,09,10,43,3.90
2012,02,09,10,44,3.90
2012,02,09,10,45,3.90
2012,02,09,10,46,3.90
2012,02,09,10,48,3.90
2012,02,09,10,49,3.90
2012,02,09,10,50,3.90
2012,02,09,10,52,3.90
2012,02,09,10,53,3.90
2012,02,09,10,54,3.90
2012,02,09,10,55,3.90
2012,02,09,10,56,3.90
2012,02,09,10,58,3.90
2012,02,09,10,59,3.90
2012,02,09,11,00,3.90
2012,02,09,11,01,3.90
2012,02,09,11,03,4.00
2012,02,09,11,04,4.00
2012,02,09,11,06,4.10
2012,02,09,11,07,4.10
2012,02,09,11,08,4.10
2012,02,09,11,09,4.10
2012,02,09,11,10,4.10
2012,02,09,11,11,4.10
2012,02,09,11,12,4.10
2012,02,09,11,13,4.10
2012,02,09,11,14,4.10
2012,02,09,11,15,4.10
2012,02,09,11,16,4.10
2012,02,09,11,17,4.10
2012,02,09,11,18,4.10
2012,02,09,11,19,4.10
2012,02,09,11,20,4.10
2012,02,09,11,21,4.20
2012,02,09,11,22,4.20
2012,02,09,11,23,4.20
2012,02,09,11,24,4.20
2012,02,09,11,25,4.20
2012,02,09,11,26,4.20
2012,02,09,11,27,4.20
2012,02,09,11,28,4.20
2012,02,09,11,29,4.20
2012,02,09,11,30,4.20
2012,02,09,11,31,4.20
2012,02,09,11,32,4.20
2012,02,09,11,33,4.20
2012,02,09,11,34,4.20
2012,02,09,11,35,4.20
2012,02,09,11,36,4.20
2012,02,09,11,37,4.20
2012,02,09,11,38,4.20
2012,02,09,11,39,4.20
2012,02,09,11,40,4.20
2012,02,09,11,41,4.20
2012,02,09,11,42,4.20
2012,02,09,11,43,4.20
2012,02,09,11,44,4.30
2012,02,09,11,45,4.30
2012,02,09,11,46,4.30
2012,02,09,11,47,4.30
2012,02,09,11,48,4.30
2012,02,09,11,49,4.30
2012,02,09,11,50,4.30
2012,02,09,11,51,4.30
2012,02,09,11,52,4.30
2012,02,09,11,54,4.30
2012,02,09,11,55,4.30
2012,02,09,11,56,4.30
2012,02,09,11,57,4.30
2012,02,09,11,58,4.30
2012,02,09,11,59,4.30
2012,02,09,12,00,4.30
2012,02,09,12,01,4.30
2012,02,09,12,02,4.30
2012,02,09,12,03,4.30
2012,02,09,12,04,4.30
2012,02,09,12,05,4.30
2012,02,09,12,06,4.40
2012,02,09,12,07,4.40
2012,02,09,12,08,4.40
2012,02,09,12,09,4.40
2012,02,09,12,10,4.40
2012,02,09,12,11,4.40
2012,02,09,12,12,4.40
2012,02,09,12,13,4.40
2012,02,09,12,14,4.50
2012,02,09,12,15,4.40
2012,02,09,12,16,4.50
2012,02,09,12,17,4.50
2012,02,09,12,18,4.50
2012,02,09,12,19,4.50
2012,02,09,12,20,4.50
2012,02,09,12,21,4.60
2012,02,09,12,22,4.60
2012,02,09,12,23,4.60
2012,02,09,12,24,4.60
2012,02,09,12,25,4.60
2012,02,09,12,26,4.60
2012,02,09,12,27,4.60
2012,02,09,12,28,4.60
2012,02,09,12,29,4.60
2012,02,09,12,30,4.60
2012,02,09,12,31,4.70
2012,02,09,12,32,4.70
2012,02,09,12,33,4.70
2012,02,09,12,34,4.70
2012,02,09,12,35,4.70
2012,02,09,12,36,4.70
2012,02,09,12,37,4.70
2012,02,09,12,38,4.70
2012,02,09,12,39,4.70
2012,02,09,12,40,4.70
2012,02,09,12,41,4.70
2012,02,09,12,43,4.70
2012,02,09,12,44,4.70
2012,02,09,12,45,4.70
2012,02,09,12,46,4.70
2012,02,09,12,47,4.70
2012,02,09,12,48,4.70
2012,02,09,12,49,4.70
2012,02,09,12,50,4.70
2012,02,09,12,51,4.70
2012,02,09,12,52,4.70
2012,02,09,12,53,4.70
2012,02,09,12,54,4.70
2012,02,09,12,55,4.70
2012,02,09,12,56,4.70
2012,02,09,12,57,4.70
2012,02,09,12,58,4.80
2012,02,09,12,59,4.80
2012,02,09,13,00,4.80
2012,02,09,13,01,4.80
2012,02,09,13,02,4.80
2012,02,09,13,03,4.80
2012,02,09,13,04,4.80
2012,02,09,13,05,4.80
2012,02,09,13,06,4.80
2012,02,09,13,07,4.80
2012,02,09,13,08,4.80
2012,02,09,13,09,4.80
2012,02,09,13,11,4.80
2012,02,09,13,12,4.80
2012,02,09,13,13,4.80
2012,02,09,13,14,4.80
2012,02,09,13,16,4.80
2012,02,09,13,17,4.90
2012,02,09,13,18,4.90
2012,02,09,13,19,4.90
2012,02,09,13,21,4.90
2012,02,09,13,22,4.90
2012,02,09,13,23,4.90
2012,02,09,13,25,5.00
2012,02,09,13,26,5.00
2012,02,09,13,27,5.00
2012,02,09,13,28,5.00
2012,02,09,13,30,5.00
2012,02,09,13,31,5.00
2012,02,09,13,32,5.00
2012,02,09,13,33,5.00
2012,02,09,13,34,5.00
2012,02,09,13,35,5.00
2012,02,09,13,36,5.00
2012,02,09,13,37,5.00
2012,02,09,13,38,5.00
2012,02,09,13,39,5.00
2012,02,09,13,40,5.10
2012,02,09,13,41,5.10
2012,02,09,13,42,5.10
2012,02,09,13,43,5.10
2012,02,09,13,44,5.10
2012,02,09,13,45,5.10
2012,02,09,13,46,5.10
2012,02,09,13,47,5.10
2012,02,09,13,48,5.10
2012,02,09,13,49,5.10
2012,02,09,13,50,5.10
2012,02,09,13,51,5.10
2012,02,09,13,52,5.10
2012,02,09,13,53,5.10
2012,02,09,13,54,5.10
2012,02,09,13,55,5.10
2012,02,09,13,56,5.10
2012,02,09,13,57,5.10
2012,02,09,13,58,5.10
2012,02,09,13,59,5.10
2012,02,09,14,00,5.10
2012,02,09,14,01,5.10
2012,02,09,14,02,5.10
2012,02,09,14,03,5.10
2012,02,09,14,04,5.10
2012,02,09,14,05,5.10
2012,02,09,14,06,5.10
2012,02,09,14,08,5.10
2012,02,09,14,09,5.10
2012,02,09,14,10,5.10
2012,02,09,14,11,5.10
2012,02,09,14,12,5.10
2012,02,09,14,13,5.10
2012,02,09,14,14,5.10
2012,02,09,14,15,5.10
2012,02,09,14,16,5.10
2012,02,09,14,17,5.10
2012,02,09,14,18,5.10
2012,02,09,14,19,5.10
2012,02,09,14,20,5.10
2012,02,09,14,22,5.10
2012,02,09,14,23,5.20
2012,02,09,14,24,5.20
2012,02,09,14,26,5.20
2012,02,09,14,27,5.20
2012,02,09,14,28,5.20
2012,02,09,14,29,5.20
2012,02,09,14,30,5.20
2012,02,09,14,31,5.20
2012,02,09,14,32,5.20
2012,02,09,14,33,5.20
2012,02,09,14,34,5.30
2012,02,09,14,35,5.20
2012,02,09,14,36,5.20
2012,02,09,14,37,5.30
2012,02,09,14,38,5.30
2012,02,09,14,39,5.30
2012,02,09,14,40,5.30
2012,02,09,14,41,5.30
2012,02,09,14,43,5.30
2012,02,09,14,44,5.30
2012,02,09,14,45,5.30
2012,02,09,14,46,5.30
2012,02,09,14,47,5.30
2012,02,09,14,49,5.30
2012,02,09,14,50,5.30
2012,02,09,14,51,5.30
2012,02,09,14,52,5.30
2012,02,09,14,54,5.30
2012,02,09,14,55,5.30
2012,02,09,14,56,5.40
2012,02,09,14,57,5.40
2012,02,09,14,58,5.40
2012,02,09,14,59,5.40
2012,02,09,15,00,5.40
2012,02,09,15,01,5.40
2012,02,09,15,03,5.40
2012,02,09,15,04,5.40
2012,02,09,15,06,5.40
2012,02,09,15,08,5.40
2012,02,09,15,09,5.40
2012,02,09,15,11,5.40
2012,02,09,15,13,5.40
2012,02,09,15,14,5.40
2012,02,09,15,15,5.40
2012,02,09,15,17,5.40
2012,02,09,15,19,5.50
2012,02,09,15,21,5.50
2012,02,09,15,22,5.60
2012,02,09,15,24,5.60
2012,02,09,15,25,5.60
2012,02,09,15,27,5.60
2012,02,09,15,28,5.60
2012,02,09,15,29,5.70
2012,02,09,15,30,5.60
2012,02,09,15,31,5.60
2012,02,09,15,32,5.60
2012,02,09,15,34,5.60
2012,02,09,15,35,5.60
2012,02,09,15,36,5.60
2012,02,09,15,37,5.60
2012,02,09,15,38,5.50
2012,02,09,15,39,5.50
2012,02,09,15,41,5.50
2012,02,09,15,43,5.50
2012,02,09,15,44,5.50
2012,02,09,15,46,5.50
2012,02,09,15,47,5.50
2012,02,09,15,48,5.50
2012,02,09,15,49,5.50
2012,02,09,15,50,5.50
2012,02,09,15,51,5.50
2012,02,09,15,52,5.60
2012,02,09,15,54,5.60
2012,02,09,15,55,5.60
2012,02,09,15,56,5.60
2012,02,09,15,58,5.60
2012,02,09,15,59,5.60
2012,02,09,16,00,5.60
2012,02,09,16,01,5.60
2012,02,09,16,03,5.60
2012,02,09,16,04,5.60
2012,02,09,16,05,5.60
2012,02,09,16,06,5.60
2012,02,09,16,07,5.60
2012,02,09,16,08,5.60
2012,02,09,16,09,5.60
2012,02,09,16,10,5.60
2012,02,09,16,11,5.60
2012,02,09,16,12,5.60
2012,02,09,16,13,5.60
2012,02,09,16,14,5.60
2012,02,09,16,15,5.60
2012,02,09,16,16,5.60
2012,02,09,16,17,5.60
2012,02,09,16,18,5.60
2012,02,09,16,19,5.60
2012,02,09,16,20,5.60
2012,02,09,16,21,5.60
2012,02,09,16,22,5.60
2012,02,09,16,24,5.60
2012,02,09,16,25,5.60
2012,02,09,16,26,5.60
2012,02,09,16,27,5.60
2012,02,09,16,28,5.60
2012,02,09,16,29,5.60
2012,02,09,16,30,5.60
2012,02,09,16,31,5.60
2012,02,09,16,32,5.70
2012,02,09,16,33,5.70
2012,02,09,16,34,5.60
2012,02,09,16,35,5.70
2012,02,09,16,36,5.70
2012,02,09,16,37,5.70
2012,02,09,16,38,5.70
2012,02,09,16,39,5.70
2012,02,09,16,40,5.70
2012,02,09,16,41,5.60
2012,02,09,16,42,5.60
2012,02,09,16,43,5.60
2012,02,09,16,44,5.70
2012,02,09,16,45,5.70
2012,02,09,16,46,5.60
2012,02,09,16,47,5.70
2012,02,09,16,48,5.70
2012,02,09,16,49,5.70
2012,02,09,16,50,5.70
2012,02,09,16,51,5.70
2012,02,09,16,52,5.70
2012,02,09,16,53,5.70
2012,02,09,16,54,5.70
2012,02,09,16,55,5.70
2012,02,09,16,56,5.70
2012,02,09,16,57,5.70
2012,02,09,16,58,5.70
2012,02,09,16,59,5.60
2012,02,09,17,01,5.60
2012,02,09,17,02,5.60
2012,02,09,17,03,5.60
2012,02,09,17,04,5.60
2012,02,09,17,05,5.60
2012,02,09,17,06,5.60
2012,02,09,17,07,5.60
2012,02,09,17,08,5.60
2012,02,09,17,09,5.60
2012,02,09,17,10,5.60
2012,02,09,17,11,5.60
2012,02,09,17,12,5.60
2012,02,09,17,13,5.60
2012,02,09,17,14,5.60
2012,02,09,17,15,5.60
2012,02,09,17,16,5.60
2012,02,09,17,17,5.60
2012,02,09,17,18,5.60
2012,02,09,17,19,5.60
2012,02,09,17,21,5.60
2012,02,09,17,23,5.60
2012,02,09,17,24,5.60
2012,02,09,17,25,5.60
2012,02,09,17,27,5.60
2012,02,09,17,28,5.60
2012,02,09,17,29,5.60
2012,02,09,17,30,5.60
2012,02,09,17,31,5.60
2012,02,09,17,32,5.60
2012,02,09,17,33,5.60
2012,02,09,17,34,5.60
2012,02,09,17,35,5.60
2012,02,09,17,36,5.60
2012,02,09,17,38,5.60
2012,02,09,17,39,5.60
2012,02,09,17,40,5.60
2012,02,09,17,41,5.60
2012,02,09,17,42,5.60
2012,02,09,17,43,5.60
2012,02,09,17,44,5.60
2012,02,09,17,45,5.60
2012,02,09,17,47,5.60
2012,02,09,17,49,5.60
2012,02,09,17,50,5.60
2012,02,09,17,52,5.70
2012,02,09,17,53,5.70
2012,02,09,17,54,5.70
2012,02,09,17,55,5.70
2012,02,09,17,56,5.70
2012,02,09,17,57,5.70
2012,02,09,17,58,5.70
2012,02,09,17,59,5.70
2012,02,09,18,00,5.70
2012,02,09,18,01,5.70
2012,02,09,18,03,5.60
2012,02,09,18,04,5.70
2012,02,09,18,05,5.70
2012,02,09,18,06,5.70
2012,02,09,18,07,5.70
2012,02,09,18,08,5.70
2012,02,09,18,09,5.70
2012,02,09,18,11,5.60
2012,02,09,18,13,5.60
2012,02,09,18,15,5.60
2012,02,09,18,16,5.60
2012,02,09,18,18,5.60
2012,02,09,18,20,5.60
2012,02,09,18,21,5.60
2012,02,09,18,23,5.50
2012,02,09,18,24,5.50
2012,02,09,18,25,5.50
2012,02,09,18,27,5.40
2012,02,09,18,28,5.40
2012,02,09,18,29,5.40
2012,02,09,18,31,5.40
2012,02,09,18,32,5.40
2012,02,09,18,33,5.40
2012,02,09,18,34,5.40
2012,02,09,18,35,5.40
2012,02,09,18,37,5.40
2012,02,09,18,38,5.30
2012,02,09,18,40,5.30
2012,02,09,18,41,5.30
2012,02,09,18,42,5.30
2012,02,09,18,44,5.30
2012,02,09,18,45,5.30
2012,02,09,18,47,5.20
2012,02,09,18,48,5.20
2012,02,09,18,49,5.20
2012,02,09,18,50,5.20
2012,02,09,18,51,5.20
2012,02,09,18,53,5.20
2012,02,09,18,54,5.20
2012,02,09,18,55,5.20
2012,02,09,18,57,5.20
2012,02,09,18,58,5.20
2012,02,09,18,59,5.20
2012,02,09,19,00,5.20
2012,02,09,19,01,5.20
2012,02,09,19,02,5.20
2012,02,09,19,03,5.20
2012,02,09,19,04,5.20
2012,02,09,19,05,5.30
2012,02,09,19,06,5.30
2012,02,09,19,07,5.30
2012,02,09,19,08,5.30
2012,02,09,19,09,5.30
2012,02,09,19,10,5.30
2012,02,09,19,11,5.30
2012,02,09,19,12,5.30
2012,02,09,19,13,5.30
2012,02,09,19,14,5.30
2012,02,09,19,15,5.30
2012,02,09,19,16,5.40
2012,02,09,19,18,5.40
2012,02,09,19,19,5.40
2012,02,09,19,20,5.40
2012,02,09,19,21,5.40
2012,02,09,19,22,5.40
2012,02,09,19,23,5.40
2012,02,09,19,24,5.40
2012,02,09,19,25,5.40
2012,02,09,19,26,5.40
2012,02,09,19,27,5.40
2012,02,09,19,28,5.40
2012,02,09,19,29,5.40
2012,02,09,19,30,5.40
2012,02,09,19,31,5.40
2012,02,09,19,32,5.40
2012,02,09,19,33,5.40
2012,02,09,19,34,5.40
2012,02,09,19,35,5.40
2012,02,09,19,36,5.40
2012,02,09,19,37,5.40
2012,02,09,19,38,5.40
2012,02,09,19,39,5.40
2012,02,09,19,40,5.40
2012,02,09,19,41,5.40
2012,02,09,19,42,5.40
2012,02,09,19,43,5.40
2012,02,09,19,44,5.40
2012,02,09,19,45,5.40
2012,02,09,19,46,5.40